Starlink 11090

operational
NORAD ID: 59422 Int'l Des: 2024-065 Owner: SPXS Country: US Constellation: starlink
LEOCIRCULAR

About Starlink 11090

Description loading...

Live Position

Loading 3D Globe...

Upcoming Passes

Altitude History

Altitude vs Time

uPlot chart will show altitude changes over time

Two-Line Element Set

1 59422U 24065B 25348.75538609 -.00003440 00000-0 -23571-4 0 9999
2 59422 53.1594 152.5485 0000725 111.1046 249.0050 15.69690416 98193
Epoch: Dec 14, 2025 • Age: 30 hours

Current Status

Altitude 378.7 km
Velocity 7.68 km/s
Sub-Earth Point -53.13°S, 39.6°W
Launch Date Apr 7, 2024
Age 1.6 years
Type internet

Technical Details

Classification Payload
Mass 960.00 kg
Dry Mass 910.00 kg
Total Mass 960.00 kg
Length 0.30 m
Diameter 4.10 m
Span 29.00 m
Shape Box + pan
Manufacturer SPXS
Bus Type Starlink V2MD
Phase Status In Orbit
Owner/State SPXS/US

Large Constellations

Loading constellations...